Weather in Cugir

Romania     45°50′11″N   23°22′18″E
temp.,
°C
wind,
m/s
gust,
m/s
humid.,
%
clouds,
%
prec.,
mm/h
press.,
hPa
HPBL,
m
15 april, thu
thu1500:000sw3599100 1.7 1019278
03:000wsw26100100 3.0 1020308
06:000sw239696 1.0 1020211
09:00+1w229077 1.4 1021453
12:00+2nw238798 0.2 1020642
15:00+3wnw348293 0.5 1020766
18:00+2sw129482 0.8 1020285
21:00+1s219092 1.1 102025
16 april, fri
fri1600:000s229392 0.3 102123
03:00−1ssw119297 0.5 102127
06:00−1sw239898 0.7 1021215
09:00+1wsw238875 1.0 1021469
12:00+3wnw347783 0.3 10221065
15:00+5nw346683 0.6 10211282
18:00+5nw336356 0.1 10211166
21:00+1se22855 0.1 102217
17 april, sat
sat1700:00−1se22865 0.0 102318
03:00−1se2185100 0.0 102214
06:00−1ese1186100 0.0 102113
09:00+3nne117595 0.0 1020275
12:00+8n3263100 0.0 1018752
15:00+10n3357100 0.0 1016960
18:00+9ene2369100 0.1 1015822
21:00+5sse2292100 1.3 101649
18 april, sun
sun1800:00+4se1190100 0.2 101616
03:00+3ese228597 0.2 101516
06:00+3ese218896 0.0 101414
09:00+4ne1293100 1.3 1014197
12:00+5nne1295100 0.6 1015343
15:00+5ne1294100 2.1 1015350
18:00+6nne1192100 0.4 1015239
21:00+5ssw0096100 1.0 101626
19 april, mon
mon1900:00+4s119380 0.1 101621
03:00+4nne0094100 0.1 101527
06:00+4nne1297100 0.0 1014107
09:00+5nne2295100 0.0 1013266
12:00+6ne3491100 0.4 1012513
15:00+5ne3695100 1.0 1010674
18:00+5nne3697100 1.4 1010708
21:00+4n2699100 2.9 1009689